Regional Weather Roundup
Issued by NWS

Home | Current Version | Previous Version | Text Only | Print | Product List | Glossary Off
Versions: 1 2 3 4 5 6 7 8 9 10 11 12 13 14 15 16 17 18 19 20 21 22 23 24 25 26 27 28 29 30 31 32 33 34 35 36 37 38 39 40 41 42 43 44 45 46 47 48 49 50

000
ASUS45 KABQ 220201
RWRNM
NEW MEXICO REGIONAL WEATHER ROUNDUP
NATIONAL WEATHER SERVICE ALBUQUERQUE NM
800 PM MDT THU SEP 21 2017

NOTE: "FAIR" MEANS FEW OR NO CLOUDS BELOW 12,000 FEET AGL WITH NO
       SIGNIFICANT WEATHER OR OBSTRUCTIONS TO VISION.

      THIS PRODUCT IS RELEASED AS TWO VERSIONS.  ONE VERSION NEAR
      THE TOP OF THE HOUR CONTAINING PRELIMINARY DATA FROM ALBUQUERQUE
      AND OTHER STATIONS.  A FINAL VERSION WITH ADDITIONAL DATA IS
      ISSUED ABOUT 10 MINUTES AFTER THE HOUR.

NMZ501-503-504-510>518-220300-
NORTHWEST PLATEAU/NORTHCENTRAL MOUNTAINS

CITY           SKY/WX    TMP DP  RH WIND       PRES   REMARKS
FARMINGTON     FAIR      74  25  16 S14       29.84S
LOS ALAMOS     FAIR      71  31  23 S5        30.02S
SANTA FE       MOCLDY    73  36  25 S6        29.95S
TAOS           FAIR      64  26  23 S9        30.03R
ANGEL FIRE     FAIR      58  25  29 S10       30.12R

$$
NMZ402-403-502-505>509-220300-
WESTCENTRAL MOUNTAINS/SOUTHWEST MOUNTAINS

CITY           SKY/WX    TMP DP  RH WIND       PRES   REMARKS
GALLUP         FAIR      70  33  25 SW18G25   29.95S
GRANTS         MOCLDY    71  33  24 S6        30.00R
SILVER CITY    FAIR      74  35  24 W6        29.98R

$$
NMZ407-409-411-412-220300-
SOUTHERN DESERTS

CITY           SKY/WX    TMP DP  RH WIND       PRES   REMARKS
DEMING         FAIR      80  43  26 SW7       29.90R
LAS CRUCES     FAIR      83  41  23 SW9       29.91S
HOLLOMAN AFB   MOCLDY    84  45  24 S9        29.89R
ALAMOGORDO     MOCLDY    81  43  26 S8        29.90R
T OR C         FAIR      83  39  21 S17       29.89S

$$
NMZ519>523-220300-
CENTRAL VALLEYS/CENTRAL HIGHLANDS

CITY           SKY/WX    TMP DP  RH WIND       PRES   REMARKS
ALBUQUERQUE    FAIR      81  32  17 SW10      29.90R
DOUBLE EAGLE   PTCLDY    75  32  20 SW13      29.93R
CLINES CORNERS FAIR      68  35  29 SW14      30.05R
BELEN          FAIR      78  32  18 SW10      29.90R
SOCORRO        FAIR      80  37  21 SW8       29.89R

$$
NMZ524>526-539-540-220300-
SOUTHCENTRAL MOUNTAINS

CITY           SKY/WX    TMP DP  RH WIND       PRES   REMARKS
RUIDOSO        NOT AVBL

$$
NMZ527>531-220300-
NORTHEAST HIGHLANDS/NORTHEAST PLAINS

CITY           SKY/WX    TMP DP  RH WIND       PRES   REMARKS
LAS VEGAS      FAIR      62  31  31 S10       30.02R
RATON          FAIR      64  29  26 S13       29.93R
CLAYTON        FAIR      63  34  33 S9        29.87R

$$
NMZ532>537-220300-
EASTCENTRAL PLAINS

CITY           SKY/WX    TMP DP  RH WIND       PRES   REMARKS
SANTA ROSA     FAIR      81  38  21 S15G21    29.88R
TUCUMCARI      FAIR      83  45  26 S15       29.81R
CANNON AFB     NOT AVBL
CLOVIS AIRPORT FAIR      72  47  40 S8        29.91R

$$
NMZ028-029-538-220300-
SOUTHEAST PLAINS

CITY           SKY/WX    TMP DP  RH WIND       PRES   REMARKS
ROSWELL        FAIR      82  40  22 SW9       29.85R
ARTESIA        FAIR      86  43  22 SW9       29.85R
CARLSBAD       FAIR      82  51  34 S8        29.83R
HOBBS          FAIR      81  48  32 S12       29.89R


$$




USA.gov is the U.S. government's official web portal to all federal, state and local government web resources and services.